Home > Time Zones > World Clock > Weather > U.S.A. > Bend > Past weeks

Flag for U.S.A. Weather past 2 weeks in Bend, Oregon, U.S.A.

Now
95 °F

Sunny.


Feels Like: 90 °F
Forecast: 62 / 92 °F
Wind: 12 mph from Northwest

Location: Roberts Field Airport

Current Time: Aug 2, 2015 at 2:35:26 PM

Latest Report: Aug 2, 2015 at 1:56 PM


Visibility: 10 mi

Pressure: 29.85 "Hg (26.41 "Hg at 1103m altitude)

Humidity: 7%

Dew point: 22 °F

Location of BendLocation

Historic Weather in Bend — Graph

°F

Bend temperature yesterday

Maximum temperature yesterday: 100 °F (at 4:56 PM)
Minimum temperature yesterday: 58 °F (at 1:56 AM)
Average temperature yesterday: 80 °F

Past Weeks' High & Low Weather Summary

 TemperatureHumidityPressure
High100 °F (Aug 1, 4:56 PM)89% (Jul 27, 5:56 AM)30.25 "Hg (Jul 27, 5:56 AM)
Low38 °F (Jul 28, 2:56 AM)8% (Jul 30, 2:56 PM)29.75 "Hg (Jul 22, 6:56 PM)
Average69 °F38%30.00 "Hg
* Reported Jul 18 12:56 PM — Aug 2 12:56 PM, Bend, Weather by CustomWeather, © 2015

Note: Actual official high and low records may vary slightly from our data, if they occured in-between our weather recording intervals... More about our weather records

Advertising

Bend weather history for previous 24 hours

 ConditionsComfort  
Time TempWeatherWind HumidityBarometerVisibility
12:56 PM
Sun, Aug 2
91 °FSunny.10 mph12%29.86 "Hg10 mi
11:56 AM86 °FSunny.3 mph14%29.88 "Hg10 mi
10:56 AM83 °FSunny.3 mph16%29.89 "Hg10 mi
9:56 AM80 °FSunny.No wind18%29.90 "Hg10 mi
8:56 AM78 °FSunny.6 mph22%29.90 "Hg10 mi
7:56 AM69 °FSunny.No wind33%29.89 "Hg10 mi
6:56 AM65 °FPassing clouds.No wind37%29.89 "Hg10 mi
5:56 AM61 °FClear.3 mph41%29.88 "Hg10 mi
4:56 AM59 °FClear.6 mph42%29.88 "Hg10 mi
3:56 AM62 °FClear.3 mph39%29.87 "Hg10 mi
2:56 AM62 °FClear.3 mph37%29.87 "Hg10 mi
1:56 AM64 °FClear.6 mph32%29.86 "Hg10 mi
12:56 AM74 °FClear.3 mph22%29.85 "Hg10 mi
11:56 PM
Sat, Aug 1
77 °FClear.3 mph21%29.86 "Hg10 mi
10:56 PM82 °FClear.8 mph16%29.85 "Hg10 mi
9:56 PM84 °FClear.7 mph15%29.86 "Hg10 mi
8:56 PM86 °FSunny.8 mph10%29.84 "Hg10 mi
7:56 PM95 °FSunny.9 mph8%29.82 "Hg10 mi
6:56 PM97 °FSunny.10 mph9%29.83 "Hg10 mi
5:56 PM98 °FSunny.10 mph10%29.83 "Hg10 mi
4:56 PM100 °FSunny.12 mph10%29.84 "Hg10 mi
3:56 PM98 °FSunny.6 mph11%29.86 "Hg10 mi
2:56 PM98 °FSunny.6 mph11%29.88 "Hg10 mi
Weather by CustomWeather, © 2015

See weather overviewHow to use our weather pages